When you browse on this site, cookies collect data to enhance your experience and personalize the content and advertising you see.
Visit our Privacy Policy to learn more. By continuing to use the site, you agree to this use of cookies and data.
  • In Hungary
  • List of Countries
  • For 7 days
  • Water Temperature
  • Satellite Maps
  • Weather Map
  • News
  • Weather Widgets
  • user-avatar
    Login

    Hourly Weather Jiupu

    Today, 20 February, Wednesday

    Time Temperature Precipitation Wind Pressure Humidity
    00:00 -3°C° 0 mm 2 mps 760 mmHg 84%
    01:00 -3°C° 0 mm 2 mps 760 mmHg 84%
    02:00 -3°C° 0 mm 2 mps 761 mmHg 83%
    03:00 -1°C° 0 mm 1 mps 761 mmHg 80%
    04:00 -1°C° 0 mm 1 mps 761 mmHg 77%
    05:00 -1°C° 0 mm 1 mps 761 mmHg 74%
    06:00 -1°C° 0 mm 1 mps 762 mmHg 72%
    07:00 -1°C° 0 mm 1 mps 762 mmHg 70%
    08:00 0°C° 0 mm 1 mps 763 mmHg 62%
    09:00 +1°C° 0 mm 1 mps 763 mmHg 56%
    10:00 +1°C° 0 mm 2 mps 763 mmHg 50%
    11:00 +2°C° 0 mm 2 mps 764 mmHg 44%
    12:00 +3°C° 0 mm 2 mps 764 mmHg 41%
    13:00 +4°C° 0 mm 2 mps 764 mmHg 39%
    14:00 +4°C° 0 mm 2 mps 764 mmHg 37%
    15:00 +4°C° 0 mm 2 mps 764 mmHg 39%
    16:00 +4°C° 0 mm 1 mps 764 mmHg 41%
    17:00 +3°C° 0 mm 0 mps 764 mmHg 43%
    18:00 +3°C° 0 mm 1 mps 764 mmHg 46%
    19:00 +2°C° 0 mm 1 mps 765 mmHg 49%
    20:00 -1°C° 0 mm 2 mps 765 mmHg 51%
    21:00 -1°C° 0 mm 2 mps 765 mmHg 52%
    22:00 -2°C° 0 mm 2 mps 765 mmHg 53%
    23:00 -2°C° 0 mm 2 mps 766 mmHg 54%

    Tomorrow, 21 February, Thursday

    Time Temperature Precipitation Wind Pressure Humidity
    00:00 -2°C° 0 mm 2 mps 766 mmHg 54%
    01:00 -2°C° 0 mm 2 mps 766 mmHg 54%
    02:00 -3°C° 0 mm 2 mps 766 mmHg 54%
    03:00 -3°C° 0 mm 2 mps 765 mmHg 54%
    04:00 -3°C° 0 mm 2 mps 765 mmHg 55%
    05:00 -3°C° 0 mm 2 mps 765 mmHg 55%
    06:00 -2°C° 0 mm 2 mps 765 mmHg 53%
    07:00 -2°C° 0 mm 2 mps 765 mmHg 52%
    08:00 -1°C° 0 mm 2 mps 765 mmHg 50%
    09:00 +1°C° 0 mm 2 mps 765 mmHg 44%
    10:00 +3°C° 0 mm 2 mps 765 mmHg 39%
    11:00 +5°C° 0 mm 2 mps 765 mmHg 33%
    12:00 +6°C° 0 mm 2 mps 765 mmHg 31%
    13:00 +6°C° 0 mm 2 mps 764 mmHg 29%
    14:00 +7°C° 0 mm 3 mps 763 mmHg 27%
    15:00 +5°C° 0 mm 3 mps 763 mmHg 31%
    16:00 +5°C° 0 mm 2 mps 763 mmHg 34%
    17:00 +4°C° 0 mm 2 mps 763 mmHg 38%
    18:00 +3°C° 0 mm 2 mps 763 mmHg 42%
    19:00 +2°C° 0 mm 2 mps 763 mmHg 46%
    20:00 -1°C° 0 mm 2 mps 763 mmHg 50%
    21:00 -1°C° 0 mm 2 mps 763 mmHg 48%
    22:00 +1°C° 0 mm 1 mps 763 mmHg 47%
    23:00 +1°C° 0 mm 1 mps 763 mmHg 45%

    Day after tomorrow, 22 February, Friday

    Time Temperature Precipitation Wind Pressure Humidity
    00:00 +1°C° 0 mm 1 mps 763 mmHg 45%
    01:00 +1°C° 0 mm 1 mps 763 mmHg 45%
    02:00 -1°C° 0 mm 0 mps 763 mmHg 44%
    03:00 -1°C° 0 mm 0 mps 763 mmHg 45%
    04:00 -1°C° 0 mm 0 mps 763 mmHg 46%
    05:00 -1°C° 0 mm 0 mps 763 mmHg 47%
    06:00 -1°C° 0 mm 0 mps 763 mmHg 46%
    07:00 +1°C° 0 mm 1 mps 763 mmHg 44%
    08:00 +1°C° 0 mm 1 mps 764 mmHg 43%
    09:00 +1°C° 0 mm 2 mps 764 mmHg 37%
    10:00 +3°C° 0 mm 2 mps 764 mmHg 31%
    11:00 +3°C° 0 mm 3 mps 764 mmHg 25%
    12:00 +4°C° 0 mm 3 mps 763 mmHg 25%
    13:00 +4°C° 0 mm 3 mps 763 mmHg 24%
    14:00 +5°C° 0 mm 4 mps 762 mmHg 23%
    15:00 +4°C° 0 mm 3 mps 762 mmHg 26%
    16:00 +3°C° 0 mm 3 mps 763 mmHg 29%
    17:00 +3°C° 0 mm 3 mps 763 mmHg 31%
    18:00 +3°C° 0 mm 2 mps 763 mmHg 34%
    19:00 +2°C° 0 mm 2 mps 764 mmHg 37%
    20:00 +1°C° 0 mm 2 mps 764 mmHg 40%
    21:00 +1°C° 0 mm 2 mps 764 mmHg 42%
    22:00 -1°C° 0 mm 2 mps 765 mmHg 45%
    23:00 -1°C° 0 mm 2 mps 765 mmHg 47%

    23 February, Saturday

    Time Temperature Precipitation Wind Pressure Humidity
    00:00 -1°C° 0 mm 2 mps 765 mmHg 49%
    01:00 -2°C° 0 mm 2 mps 765 mmHg 50%
    02:00 -2°C° 0 mm 2 mps 765 mmHg 51%
    03:00 -2°C° 0 mm 2 mps 765 mmHg 51%
    04:00 -2°C° 0 mm 2 mps 765 mmHg 52%
    05:00 -2°C° 0 mm 2 mps 765 mmHg 52%
    06:00 -2°C° 0 mm 2 mps 765 mmHg 49%
    07:00 -1°C° 0 mm 2 mps 765 mmHg 47%
    08:00 -1°C° 0 mm 2 mps 766 mmHg 45%
    09:00 +2°C° 0 mm 2 mps 765 mmHg 38%
    10:00 +4°C° 0 mm 2 mps 765 mmHg 31%
    11:00 +6°C° 0 mm 2 mps 765 mmHg 24%
    12:00 +6°C° 0 mm 2 mps 764 mmHg 23%
    13:00 +7°C° 0 mm 2 mps 764 mmHg 22%
    14:00 +9°C° 0 mm 1 mps 763 mmHg 20%
    15:00 +8°C° 0 mm 1 mps 763 mmHg 23%
    16:00 +7°C° 0 mm 1 mps 762 mmHg 25%
    17:00 +6°C° 0 mm 0 mps 762 mmHg 28%
    18:00 +6°C° 0 mm 1 mps 762 mmHg 30%
    19:00 +5°C° 0 mm 1 mps 762 mmHg 32%
    20:00 +3°C° 0 mm 2 mps 763 mmHg 34%
    21:00 +2°C° 0 mm 2 mps 762 mmHg 36%
    22:00 +2°C° 0 mm 2 mps 762 mmHg 38%
    23:00 +1°C° 0 mm 2 mps 762 mmHg 40%

    24 February, Sunday

    Time Temperature Precipitation Wind Pressure Humidity
    00:00 0°C° 0 mm 3 mps 762 mmHg 40%
    01:00 0°C° 0 mm 3 mps 762 mmHg 40%
    02:00 0°C° 0 mm 3 mps 762 mmHg 40%
    03:00 0°C° 0 mm 3 mps 762 mmHg 41%
    04:00 -1°C° 0 mm 3 mps 761 mmHg 42%
    05:00 -1°C° 0 mm 3 mps 761 mmHg 42%
    06:00 0°C° 0 mm 3 mps 761 mmHg 43%
    07:00 +1°C° 0 mm 2 mps 762 mmHg 44%
    08:00 +1°C° 0 mm 2 mps 762 mmHg 45%
    09:00 +3°C° 0 mm 2 mps 762 mmHg 43%
    10:00 +4°C° 0 mm 2 mps 762 mmHg 41%
    11:00 +6°C° 0 mm 1 mps 762 mmHg 38%
    12:00 +7°C° 0 mm 1 mps 761 mmHg 35%
    13:00 +6°C° 0 mm 2 mps 761 mmHg 33%
    14:00 +7°C° 0 mm 2 mps 760 mmHg 30%
    15:00 +7°C° 0 mm 2 mps 760 mmHg 31%
    16:00 +7°C° 0 mm 1 mps 760 mmHg 31%
    17:00 +7°C° 0 mm 1 mps 761 mmHg 32%
    18:00 +6°C° 0 mm 1 mps 761 mmHg 33%
    19:00 +5°C° 0 mm 1 mps 761 mmHg 35%
    20:00 +5°C° 0 mm 1 mps 762 mmHg 37%
    21:00 +3°C° 0 mm 2 mps 762 mmHg 37%
    22:00 +2°C° 0 mm 2 mps 762 mmHg 37%
    23:00 +2°C° 0 mm 2 mps 762 mmHg 38%

    25 February, Monday

    Time Temperature Precipitation Wind Pressure Humidity
    00:00 +1°C° 0 mm 2 mps 763 mmHg 38%
    01:00 +1°C° 0 mm 2 mps 763 mmHg 39%
    02:00 -1°C° 0 mm 2 mps 763 mmHg 40%
    03:00 -1°C° 0 mm 2 mps 763 mmHg 41%
    04:00 -2°C° 0 mm 2 mps 764 mmHg 41%
    05:00 -2°C° 0 mm 2 mps 764 mmHg 42%
    06:00 -2°C° 0 mm 2 mps 764 mmHg 41%
    07:00 -1°C° 0 mm 2 mps 765 mmHg 39%
    08:00 -1°C° 0 mm 2 mps 765 mmHg 37%
    09:00 +1°C° 0 mm 2 mps 765 mmHg 34%
    10:00 +2°C° 0 mm 2 mps 765 mmHg 31%
    11:00 +3°C° 0 mm 2 mps 765 mmHg 27%
    12:00 +4°C° 0 mm 2 mps 765 mmHg 26%
    13:00 +4°C° 0 mm 2 mps 764 mmHg 24%
    14:00 +5°C° 0 mm 2 mps 764 mmHg 23%
    15:00 +5°C° 0 mm 2 mps 764 mmHg 24%
    16:00 +5°C° 0 mm 1 mps 764 mmHg 25%
    17:00 +5°C° 0 mm 1 mps 764 mmHg 26%
    18:00 +4°C° 0 mm 1 mps 764 mmHg 27%
    19:00 +3°C° 0 mm 1 mps 765 mmHg 29%
    20:00 +2°C° 0 mm 1 mps 765 mmHg 30%
    21:00 +2°C° 0 mm 1 mps 765 mmHg 31%
    22:00 +2°C° 0 mm 1 mps 765 mmHg 32%
    23:00 +1°C° 0 mm 1 mps 765 mmHg 33%
    Show more